Change the Weather History Date:

Wednesday, August 8, 2012

  Actual Average Record
Temperature  
Mean Temperature 84 °F 79 °F  
Max Temperature 100 °F 96 °F 105 °F (2001)
Min Temperature 68 °F 62 °F 57 °F (2010)
Degree Days  
Heating Degree Days 0    
Month to date heating degree days 0  
Since 1 June heating degree days 3  
Since 1 July heating degree days 0  
Cooling Degree Days 19    
Month to date cooling degree days 134  
Year to date cooling degree days 1155  
Since 1 June cooling degree days 915  
Growing Degree Days 34 (Base 50)    
Moisture  
Dew Point 51 °F    
Average Humidity 34    
Maximum Humidity 45    
Minimum Humidity 23    
Precipitation  
Precipitation 0.00 in 0.00 in 0.00 in (2015)
Month to date precipitation 0.00 0.00  
Year to date precipitation 4.58 6.78  
Since 1 July precipitation T 0.02  
Snow  
Snow 0.00 in - - ()
Month to date snowfall 0.0  
Since 1 June snowfall 0.0  
Since 1 July snowfall 0.0  
Snow Depth 0.00 in    
Sea Level Pressure  
Sea Level Pressure 29.90 in    
Wind  
Wind Speed 6 mph (NW)    
Max Wind Speed 13 mph    
Max Gust Speed 16 mph    
Visibility 10 miles    
Events      
T = Trace of Precipitation, MM = Missing Value Source: NWS Daily Summary

Daily Weather History Graph

Daily Weather History Graph

Search for Another Location

Airport or City:

Trip Planner

Search our weather history database for the weather conditions in past years. The results will help you decide how hot, cold, wet, or windy it might be!

Date:

Astronomy

Aug. 08, 2012 Rise Set
Actual Time 6:11 AM PDT 7:56 PM PDT
Civil Twilight 5:43 AM PDT 8:24 PM PDT
Nautical Twilight 5:09 AM PDT 8:57 PM PDT
Astronomical Twilight 4:34 AM PDT 9:33 PM PDT
Moon 11:28 PM PDT (8/8) 12:46 PM PDT (8/8)
Length of Visible Light 14h 40m
Length of Day
13h 45m
Waning Gibbous, 59% of the Moon is Illuminated
Aug 8
Waning Gibbous
Aug 9
Last Quarter
Aug 17
New
Aug 24
First Quarter
Aug 31
Full

Hourly Weather History & Observations

Time (PDT) Temp. Heat Index Dew Point Humidity Pressure Visibility Wind Dir Wind Speed Gust Speed Precip Events Conditions
12:53 AM 78.1 °F - 46.9 °F 33% 29.91 in 10.0 mi NNW 8.1 mph - N/A   Clear
1:53 AM 75.0 °F - 46.9 °F 37% 29.91 in 10.0 mi NNW 6.9 mph - N/A   Clear
2:53 AM 75.0 °F - 46.0 °F 36% 29.91 in 10.0 mi NNW 9.2 mph - N/A   Clear
3:53 AM 73.0 °F - 45.0 °F 37% 29.91 in 10.0 mi NNW 5.8 mph - N/A   Clear
4:53 AM 71.1 °F - 46.0 °F 41% 29.91 in 10.0 mi NNW 4.6 mph - N/A   Clear
5:53 AM 71.1 °F - 45.0 °F 39% 29.93 in 10.0 mi WNW 4.6 mph - N/A   Clear
6:53 AM 69.1 °F - 46.9 °F 45% 29.95 in 10.0 mi Calm Calm - N/A   Clear
7:53 AM 73.9 °F - 45.0 °F 35% 29.95 in 10.0 mi NW 5.8 mph - N/A   Clear
8:53 AM 75.9 °F - 46.0 °F 35% 29.95 in 10.0 mi WNW 6.9 mph - N/A   Clear
9:53 AM 80.1 °F - 46.9 °F 31% 29.96 in 10.0 mi NW 4.6 mph - N/A   Clear
10:53 AM 84.0 °F - 48.0 °F 28% 29.95 in 10.0 mi NW 5.8 mph - N/A   Clear
11:53 AM 86.0 °F - 50.0 °F 29% 29.94 in 10.0 mi Variable 4.6 mph - N/A   Clear
12:53 PM 91.0 °F - 51.1 °F 25% 29.92 in 10.0 mi West 5.8 mph - N/A   Clear
1:53 PM 93.9 °F 91.4 °F 53.1 °F 25% 29.91 in 10.0 mi Variable 6.9 mph - N/A   Clear
2:53 PM 96.1 °F 93.8 °F 54.0 °F 24% 29.88 in 10.0 mi NW 9.2 mph - N/A   Clear
3:53 PM 98.1 °F 96.4 °F 55.0 °F 24% 29.86 in 10.0 mi NNW 6.9 mph - N/A   Clear
4:53 PM 100.0 °F 98.8 °F 55.9 °F 23% 29.84 in 10.0 mi Variable 5.8 mph - N/A   Clear
5:53 PM 99.0 °F 97.7 °F 55.9 °F 24% 29.84 in 10.0 mi NNW 8.1 mph - N/A   Clear
6:53 PM 96.1 °F 94.5 °F 55.9 °F 26% 29.83 in 10.0 mi NNW 10.4 mph - N/A   Clear
7:53 PM 91.9 °F 90.0 °F 55.0 °F 29% 29.85 in 10.0 mi NW 8.1 mph - N/A   Clear
8:53 PM 90.0 °F 87.7 °F 54.0 °F 29% 29.86 in 10.0 mi NW 6.9 mph - N/A   Clear
9:53 PM 84.9 °F 84.4 °F 59.0 °F 41% 29.88 in 10.0 mi WNW 3.5 mph - N/A   Clear
10:53 PM 81.0 °F 81.0 °F 57.0 °F 44% 29.88 in 10.0 mi NW 5.8 mph - N/A   Clear
11:53 PM 82.0 °F - 51.1 °F 34% 29.88 in 10.0 mi NW 6.9 mph - N/A   Clear